Danbury, CT

2:17 AM EDT on June 29, 2017 (GMT -0400)
Danbury Municipal

Weather History for KDXR - February, 2014

Change the Weather History Date:

Saturday, February 1, 2014

  Actual Average Record
Temperature  
Mean Temperature 34 °F -  
Max Temperature 42 °F 35 °F 60 °F (2012)
Min Temperature 25 °F 17 °F -1 °F (1963)
Degree Days  
Heating Degree Days 32    
Moisture  
Dew Point 22 °F    
Average Humidity 63    
Maximum Humidity 81    
Minimum Humidity 41    
Precipitation  
Precipitation 0.00 in - - ()
Sea Level Pressure  
Sea Level Pressure 30.22 in    
Wind  
Wind Speed 2 mph (SSE)    
Max Wind Speed 10 mph    
Max Gust Speed 18 mph    
Visibility 10 miles    
Events      
Averages and records for this station are not official NWS values.
T = Trace of Precipitation, MM = Missing Value Source: NWS Daily Summary

Daily Weather History Graph

Daily Weather History Graph

Search for Another Location

Airport or City:

Trip Planner

Search our weather history database for the weather conditions in past years. The results will help you decide how hot, cold, wet, or windy it might be!

Date:

Astronomy

Feb. 01, 2014 Rise Set
Actual Time 7:05 AM EST 5:10 PM EST
Civil Twilight 6:36 AM EST 5:39 PM EST
Nautical Twilight 6:02 AM EST 6:12 PM EST
Astronomical Twilight 5:30 AM EST 6:45 PM EST
Moon 7:51 AM EST (2/1) 7:44 PM EST (2/1)
Length of Visible Light 11h 03m
Length of Day
10h 04m
Waxing Crescent, 5% of the Moon is Illuminated
Feb 1
Waxing Crescent
Feb 6
First Quarter
Feb 14
Full
Feb 22
Last Quarter
Mar 1
New

Hourly Weather History & Observations

Time (EST) Temp. Windchill Dew Point Humidity Pressure Visibility Wind Dir Wind Speed Gust Speed Precip Events Conditions
12:53 AM 30.9 °F - 19.0 °F 61% 30.25 in 10.0 mi Calm Calm - N/A   Partly Cloudy
1:53 AM 28.9 °F - 19.9 °F 69% 30.24 in 10.0 mi Calm Calm - N/A   Scattered Clouds
2:53 AM 30.0 °F - 21.9 °F 72% 30.26 in 10.0 mi Calm Calm - N/A   Overcast
3:53 AM 30.9 °F - 21.9 °F 69% 30.26 in 10.0 mi Calm Calm - N/A   Overcast
4:53 AM 30.9 °F - 21.0 °F 67% 30.28 in 10.0 mi Calm Calm - N/A   Mostly Cloudy
5:53 AM 28.0 °F - 21.9 °F 78% 30.30 in 10.0 mi Calm Calm - N/A   Clear
6:53 AM 25.0 °F - 19.9 °F 81% 30.33 in 10.0 mi Calm Calm - N/A   Clear
7:53 AM 26.1 °F - 19.9 °F 78% 30.35 in 9.0 mi Calm Calm - N/A   Clear
8:53 AM 30.0 °F - 21.0 °F 69% 30.34 in 8.0 mi Calm Calm - N/A   Clear
9:53 AM 36.0 °F - 21.9 °F 57% 30.33 in 10.0 mi Calm Calm - N/A   Clear
10:53 AM 39.0 °F 34.8 °F 21.0 °F 49% 30.32 in 10.0 mi SE 5.8 mph - N/A   Clear
11:53 AM 39.9 °F 33.9 °F 19.0 °F 43% 30.30 in 10.0 mi South 9.2 mph - N/A   Clear
12:53 PM 41.0 °F 36.4 °F 19.9 °F 43% 30.27 in 10.0 mi Variable 6.9 mph - N/A   Clear
1:53 PM 42.1 °F 39.2 °F 19.9 °F 41% 30.24 in 10.0 mi SSE 4.6 mph - N/A   Clear
2:53 PM 41.0 °F 35.8 °F 19.9 °F 43% 30.23 in 10.0 mi SSE 8.1 mph - N/A   Clear
3:53 PM 39.9 °F 33.4 °F 21.9 °F 49% 30.20 in 10.0 mi SSE 10.4 mph 18.4 mph N/A   Clear
4:53 PM 39.0 °F 34.8 °F 19.9 °F 46% 30.20 in 10.0 mi SSE 5.8 mph - N/A   Clear
5:53 PM 37.0 °F - 19.9 °F 50% 30.20 in 10.0 mi Calm Calm - N/A   Clear
6:53 PM 35.1 °F 32.2 °F 21.9 °F 59% 30.18 in 10.0 mi SSE 3.5 mph - N/A   Clear
7:53 PM 34.0 °F 29.8 °F 23.0 °F 64% 30.17 in 10.0 mi SSE 4.6 mph - N/A   Clear
8:53 PM 34.0 °F 29.8 °F 25.0 °F 70% 30.12 in 9.0 mi SSE 4.6 mph - N/A   Clear
9:53 PM 34.0 °F - 26.1 °F 73% 30.09 in 9.0 mi Calm Calm - N/A   Partly Cloudy
10:04 PM 33.8 °F - 26.6 °F 75% 30.07 in 9.0 mi Calm Calm - N/A   Mostly Cloudy
10:53 PM 37.0 °F 34.5 °F 28.9 °F 73% 30.07 in 9.0 mi South 3.5 mph - N/A   Overcast
11:33 PM 35.6 °F - 28.4 °F 75% 30.04 in 8.0 mi Calm Calm - N/A   Overcast
11:53 PM 35.1 °F - 28.9 °F 78% 30.05 in 8.0 mi Calm Calm - N/A   Overcast